Location: Roanoke
(37.2710°N, 79.9420°W)
Time: 17:09:46
(UTC-05:00)

deb Explorer IX - Visible Passes

Search period start: 13 November 2019 00:00
Search period end: 23 November 2019 00:00
Orbit: 546 x 1105 km, 38.8° (Epoch: 12 November)

Date Brightness Start Highest point End Pass type
(mag) Time Alt. Az. Time Alt. Az. Time Alt. Az.
13 Nov ? 04:33:47 57° E 04:33:47 57° E 04:37:22 10° ENE visible
13 Nov ? 06:15:10 11° W 06:19:50 73° N 06:24:04 10° E visible
14 Nov ? 04:13:07 33° E 04:13:07 33° E 04:15:36 10° ENE visible
14 Nov ? 05:54:30 19° W 05:57:59 74° N 06:02:18 10° E visible
15 Nov ? 03:52:25 20° ENE 03:52:25 20° ENE 03:53:50 10° ENE visible
15 Nov ? 05:33:47 31° WNW 05:36:07 74° N 05:40:31 10° E visible
16 Nov ? 03:31:41 12° ENE 03:31:41 12° ENE 03:32:03 10° ENE visible
16 Nov ? 05:13:04 51° WNW 05:14:14 75° N 05:18:45 10° E visible
17 Nov ? 04:52:20 76° N 04:52:21 76° N 04:56:59 10° E visible
18 Nov ? 04:31:36 53° ENE 04:31:36 53° ENE 04:35:13 10° E visible
18 Nov ? 06:12:59 13° W 06:17:22 56° SSW 06:21:39 10° SE visible
19 Nov ? 04:10:53 32° E 04:10:53 32° E 04:13:25 10° E visible
19 Nov ? 05:52:16 21° W 05:55:28 56° SSW 05:59:52 10° SE visible
20 Nov ? 03:50:11 20° E 03:50:11 20° E 03:51:37 10° E visible
20 Nov ? 05:31:34 33° W 05:33:34 55° SSW 05:38:04 10° SE visible
21 Nov ? 03:29:30 12° E 03:29:30 12° E 03:29:49 10° E visible
21 Nov ? 05:10:53 50° WSW 05:11:39 55° SSW 05:16:15 10° SE visible
22 Nov ? 04:50:15 52° S 04:50:15 52° S 04:54:27 10° SE visible
22 Nov ? 06:33:16 10° WSW 06:35:49 14° SW 06:38:14 10° S visible
